Burlington, CO

2:01 AM MDT on July 22, 2017 (GMT -0600)
Kit Carson County

Weather History for KITR - August, 2013

Change the Weather History Date:

Thursday, August 22, 2013

  Actual Average Record
Temperature  
Mean Temperature 77 °F 71 °F  
Max Temperature 88 °F 85 °F 101 °F (1938)
Min Temperature 65 °F 57 °F 45 °F (1945)
Cooling Degree Days 10    
Growing Degree Days 26 (Base 50)    
Moisture  
Dew Point 61 °F    
Average Humidity 67    
Maximum Humidity 94    
Minimum Humidity 38    
Precipitation  
Precipitation T in 0.06 in 0.91 in (1933)
Month to date precipitation 1.86 1.74  
Year to date precipitation 10.39 13.48  
Sea Level Pressure  
Sea Level Pressure 29.97 in    
Wind  
Wind Speed 10 mph (NNE)    
Max Wind Speed 20 mph    
Max Gust Speed 22 mph    
Visibility 10 miles    
Events      
T = Trace of Precipitation, MM = Missing Value Source: NWS Daily Summary

Daily Weather History Graph

Daily Weather History Graph

Search for Another Location

Airport or City:

Trip Planner

Search our weather history database for the weather conditions in past years. The results will help you decide how hot, cold, wet, or windy it might be!

Date:

Astronomy

Aug. 22, 2013 Rise Set
Actual Time 6:08 AM MDT 7:34 PM MDT
Civil Twilight 5:40 AM MDT 8:02 PM MDT
Nautical Twilight 5:07 AM MDT 8:35 PM MDT
Astronomical Twilight 4:31 AM MDT 9:11 PM MDT
Moon 8:20 PM MDT 7:58 AM MDT
Length of Visible Light 14h 21m
Length of Day
13h 25m
Waning Gibbous, 96% of the Moon is Illuminated
Aug 22
Waning Gibbous
Aug 28
Last Quarter
Sep 5
New
Sep 12
First Quarter
Sep 19
Full

Hourly Weather History & Observations

Time (MDT) Temp. Heat Index Dew Point Humidity Pressure Visibility Wind Dir Wind Speed Gust Speed Precip Events Conditions
12:53 AM 73.9 °F - 53.1 °F 48% 29.88 in 10.0 mi West 10.4 mph - N/A   Clear
1:53 AM 66.9 °F - 55.0 °F 66% 29.88 in 10.0 mi WSW 3.5 mph - N/A   Clear
2:53 AM 66.0 °F - 57.9 °F 75% 29.88 in 10.0 mi NW 8.1 mph - N/A   Clear
3:53 AM 66.0 °F - 61.0 °F 84% 29.89 in 10.0 mi North 12.7 mph - N/A   Clear
4:53 AM 64.9 °F - 60.1 °F 84% 29.90 in 10.0 mi NNW 10.4 mph - N/A   Clear
5:53 AM 64.9 °F - 61.0 °F 87% 29.92 in 10.0 mi NNW 10.4 mph - N/A   Clear
6:53 AM 64.9 °F - 61.0 °F 87% 29.96 in 10.0 mi NNW 10.4 mph - N/A   Clear
7:51 AM 64.4 °F - 62.6 °F 94% 30.15 in 10.0 mi North 6.9 mph 16.1 mph 0.00 in   Mostly Cloudy
7:53 AM 64.9 °F - 62.1 °F 90% 29.99 in 10.0 mi North 9.2 mph 16.1 mph 0.00 in   Overcast
8:00 AM 64.4 °F - 62.6 °F 94% 30.15 in 10.0 mi North 12.7 mph 18.4 mph N/A   Mostly Cloudy
8:53 AM 66.9 °F - 62.1 °F 84% 29.99 in 9.0 mi NNW 13.8 mph - N/A   Overcast
9:27 AM 69.8 °F - 62.6 °F 78% 30.15 in 10.0 mi North 19.6 mph - N/A   Partly Cloudy
9:53 AM 72.0 °F - 62.1 °F 71% 29.99 in 10.0 mi North 15.0 mph - N/A   Clear
10:53 AM 75.9 °F - 63.0 °F 64% 29.99 in 10.0 mi North 13.8 mph 21.9 mph N/A   Clear
11:53 AM 78.1 °F - 63.0 °F 60% 29.97 in 10.0 mi North 15.0 mph 21.9 mph N/A   Clear
12:53 PM 81.0 °F 82.2 °F 63.0 °F 54% 29.97 in 10.0 mi NE 10.4 mph - N/A   Clear
1:53 PM 87.1 °F 87.8 °F 63.0 °F 44% 29.96 in 10.0 mi NE 10.4 mph 18.4 mph N/A   Clear
2:53 PM 84.9 °F 85.4 °F 62.1 °F 46% 29.96 in 10.0 mi NE 12.7 mph 21.9 mph N/A   Clear
3:53 PM 87.1 °F 87.0 °F 61.0 °F 41% 29.93 in 10.0 mi NNE 13.8 mph - N/A   Clear
4:53 PM 87.1 °F 86.7 °F 60.1 °F 40% 29.91 in 10.0 mi NE 10.4 mph 20.7 mph N/A   Clear
5:53 PM 86.0 °F 85.0 °F 57.9 °F 38% 29.91 in 10.0 mi NE 10.4 mph 18.4 mph N/A   Clear
6:53 PM 81.0 °F 81.1 °F 57.9 °F 45% 29.93 in 10.0 mi ENE 9.2 mph - N/A   Clear
7:53 PM 77.0 °F - 57.9 °F 52% 29.95 in 10.0 mi ENE 8.1 mph - N/A   Clear
8:53 PM 75.0 °F - 60.1 °F 60% 29.97 in 10.0 mi ENE 11.5 mph - N/A   Clear
9:53 PM 72.0 °F - 62.1 °F 71% 29.99 in 10.0 mi NE 8.1 mph - N/A   Clear
10:53 PM 70.0 °F - 64.0 °F 81% 29.98 in 10.0 mi ENE 13.8 mph - N/A   Clear
11:53 PM 69.1 °F - 64.0 °F 84% 29.98 in 10.0 mi NE 8.1 mph - N/A   Overcast